TimeMST,TemperatureF,Dew PointF,Humidity,Sea Level PressureIn,VisibilityMPH,Wind Direction,Wind SpeedMPH,Gust SpeedMPH,PrecipitationIn,Events,Conditions,WindDirDegrees,DateUTC
12:08 AM,19.4,15.8,86,30.24,10.0,SSE,4.6,-,N/A,,Overcast,150,2013-02-15 07:08:00
12:28 AM,19.4,14.0,80,30.24,10.0,SE,5.8,-,N/A,,Overcast,130,2013-02-15 07:28:00
12:48 AM,17.6,14.0,86,30.24,10.0,SSE,4.6,-,N/A,,Overcast,160,2013-02-15 07:48:00
1:08 AM,19.4,14.0,80,30.24,10.0,SSE,4.6,-,N/A,,Overcast,160,2013-02-15 08:08:00
1:28 AM,21.2,17.6,86,30.24,10.0,SE,5.8,-,N/A,,Overcast,140,2013-02-15 08:28:00
1:48 AM,23.0,17.6,80,30.23,10.0,Calm,Calm,-,N/A,,Overcast,0,2013-02-15 08:48:00
2:08 AM,23.0,17.6,80,30.23,10.0,SE,3.5,-,N/A,,Overcast,140,2013-02-15 09:08:00
2:28 AM,23.0,17.6,80,30.24,10.0,SE,4.6,-,N/A,,Overcast,140,2013-02-15 09:28:00
3:07 AM,23.0,19.4,86,30.22,5.0,SSE,6.9,-,N/A,Snow,Light Snow,150,2013-02-15 10:07:00
3:28 AM,23.0,19.4,86,30.21,7.0,SSE,6.9,-,N/A,,Overcast,150,2013-02-15 10:28:00
3:48 AM,21.2,17.6,86,30.21,10.0,SSE,4.6,-,N/A,,Scattered Clouds,160,2013-02-15 10:48:00
4:08 AM,19.4,15.8,86,30.21,10.0,SSE,5.8,-,N/A,,Mostly Cloudy,160,2013-02-15 11:08:00
4:28 AM,19.4,14.0,80,30.22,10.0,SSE,5.8,-,N/A,,Overcast,160,2013-02-15 11:28:00
4:48 AM,19.4,15.8,86,30.20,10.0,South,5.8,-,N/A,,Mostly Cloudy,180,2013-02-15 11:48:00
5:08 AM,19.4,15.8,86,30.20,10.0,South,5.8,-,N/A,,Mostly Cloudy,190,2013-02-15 12:08:00
5:27 AM,19.4,14.0,80,30.20,10.0,South,5.8,-,N/A,,Mostly Cloudy,180,2013-02-15 12:27:00
5:48 AM,19.4,14.0,80,30.21,10.0,Calm,Calm,-,N/A,,Overcast,0,2013-02-15 12:48:00
6:08 AM,19.4,14.0,80,30.21,10.0,SW,6.9,-,N/A,,Overcast,220,2013-02-15 13:08:00
6:28 AM,19.4,14.0,80,30.22,10.0,SW,8.1,-,N/A,,Overcast,220,2013-02-15 13:28:00
6:48 AM,21.2,14.0,74,30.23,10.0,SSW,6.9,-,N/A,,Overcast,210,2013-02-15 13:48:00
7:05 AM,21.2,15.8,80,30.24,10.0,SW,6.9,-,N/A,,Overcast,230,2013-02-15 14:05:00
7:50 AM,21.2,15.8,80,30.25,40.0,SSW,5.8,-,N/A,,Mostly Cloudy,210,2013-02-15 14:50:00
8:47 AM,26.6,19.4,74,30.26,40.0,West,6.9,-,N/A,,Scattered Clouds,260,2013-02-15 15:47:00
9:47 AM,30.2,19.4,64,30.26,40.0,WSW,5.8,-,N/A,,Scattered Clouds,250,2013-02-15 16:47:00
10:50 AM,32.0,19.4,60,30.24,40.0,West,9.2,-,N/A,,Scattered Clouds,260,2013-02-15 17:50:00
11:50 AM,35.6,17.6,48,30.22,40.0,WNW,13.8,25.3,N/A,,Mostly Cloudy,290,2013-02-15 18:50:00
12:50 PM,35.6,17.6,48,30.23,40.0,North,25.3,31.1,N/A,,Mostly Cloudy,350,2013-02-15 19:50:00
2:50 PM,37.4,19.4,48,30.23,30.0,NNE,26.5,38.0,N/A,,Mostly Cloudy,20,2013-02-15 21:50:00
3:47 PM,35.6,19.4,52,30.24,30.0,North,17.3,24.2,N/A,,Mostly Cloudy,10,2013-02-15 22:47:00
5:52 PM,26.6,17.6,69,30.27,10.0,ENE,8.1,-,N/A,,Scattered Clouds,70,2013-02-16 00:52:00
6:52 PM,21.2,15.8,80,30.28,10.0,SSE,8.1,-,N/A,,Scattered Clouds,150,2013-02-16 01:52:00
9:27 PM,24.8,19.4,80,30.25,10.0,South,8.1,-,N/A,,Overcast,180,2013-02-16 04:27:00
9:48 PM,23.0,19.4,86,30.23,10.0,South,8.1,-,N/A,,Mostly Cloudy,180,2013-02-16 04:48:00
10:08 PM,24.8,19.4,80,30.23,10.0,South,8.1,-,N/A,,Overcast,180,2013-02-16 05:08:00
10:28 PM,23.0,19.4,86,30.22,10.0,South,6.9,-,N/A,,Scattered Clouds,170,2013-02-16 05:28:00
10:48 PM,23.0,17.6,80,30.21,10.0,SSE,8.1,-,N/A,,Clear,160,2013-02-16 05:48:00
11:08 PM,21.2,17.6,86,30.21,10.0,SSE,6.9,-,N/A,,Clear,160,2013-02-16 06:08:00
11:28 PM,21.2,17.6,86,30.20,10.0,South,6.9,-,N/A,,Clear,180,2013-02-16 06:28:00
11:48 PM,21.2,17.6,86,30.19,10.0,South,10.4,-,N/A,,Clear,190,2013-02-16 06:48:00